This demonstration page uses our WeatherBlox Daily Observations layout. Learn more.

Left ArrowRight Arrow

39.95238, -75.16362

Hourly Observations for April 26, 2022

Temp ( °F °C ) Dew Point ( °F °C ) Humidity (%) Winds ( mph kmh ) Pressure ( in mb ) Visibility ( mi km ) Precip ( " mm )
12:54 am 00:54 Cloudy 55 12.8 45 7.2 69 69 ENE 6 9 30.14 1021 10 16 0.00 0.00
1:28 am 01:28 Cloudy 55 12.8 45 7.2 69 69 ENE 7 11 30.14 1021 10 16 0.00 0.00
1:54 am 01:54 Cloudy 55 12.8 47 8.3 74 74 E 5 7 30.12 1020 10 16 0.00 0.00
2:54 am 02:54 Cloudy 55 12.8 47 8.3 74 74 E 6 9 30.09 1019 10 16 0.00 0.00
3:54 am 03:54 Cloudy 54 12.2 46 7.8 75 75 ENE 7 11 30.08 1019 10 16 0.00 0.00
4:54 am 04:54 Cloudy 56 13.3 48 8.9 75 75 NE 6 9 30.08 1019 10 16 0.00 0.00
5:54 am 05:54 Cloudy 56 13.3 50 10 81 81 NE 8 13 30.08 1019 10 16 0.00 0.00
6:54 am 06:54 Cloudy 56 13.3 51 10.6 84 84 ENE 8 13 30.06 1018 10 16 0.00 0.00
7:54 am 07:54 Cloudy 57 13.9 51 10.6 81 81 NE 8 13 30.07 1018 10 16 0.00 0.00
8:54 am 08:54 Cloudy 58 14.4 52 11.1 81 81 NNE 7 11 30.06 1018 10 16 0.00 0.00
9:54 am 09:54 Cloudy 59 15 53 11.7 81 81 NE 6 9 30.05 1018 10 16 0.00 0.00
10:27 am 10:27 Cloudy 59 15 53 11.7 81 81 NNE 5 7 30.04 1017 10 16 0.00 0.00
10:54 am 10:54 Cloudy 59 15 53 11.7 81 81 VRB 6 9 30.04 1017 10 16 0.00 0.00
11:27 am 11:27 Mostly Cloudy 62 16.7 55 12.8 78 78 VRB 6 9 30.03 1017 10 16 0.00 0.00
11:54 am 11:54 Mostly Cloudy 64 17.8 55 12.8 73 73 VRB 6 9 30.02 1017 10 16 0.00 0.00
12:58 pm 12:58 Mostly Cloudy 66 18.9 56 13.3 70 70 VRB 6 9 30.01 1016 10 16 0.00 0.00
1:54 pm 13:54 Mostly Cloudy 71 21.7 55 12.8 57 57 NNW 14 22 30.00 1016 10 16 0.00 0.00
2:42 pm 14:42 Mostly Cloudy 71 21.7 55 12.8 57 57 NNW 13 20 29.99 1016 10 16 0.00 0.00
2:54 pm 14:54 Mostly Cloudy 70 21.1 54 12.2 57 57 NNW 15 24 29.98 1015 10 16 0.00 0.00
3:54 pm 15:54 Cloudy 70 21.1 53 11.7 55 55 NNW 13 20 29.98 1015 10 16 0.00 0.00
4:54 pm 16:54 Cloudy with Light Rain 67 19.4 52 11.1 59 59 NNW 14 22 29.98 1015 10 16 0.00 0.00
5:54 pm 17:54 Cloudy with Light Rain 66 18.9 52 11.1 61 61 WNW 15 24 30.00 1016 10 16 0.00 0.00
6:54 pm 18:54 Cloudy with Light Rain 62 16.7 54 12.2 75 75 NNW 9 15 29.99 1016 10 16 0.00 0.00
7:54 pm 19:54 Cloudy with Light Rain 62 16.7 53 11.7 73 73 NNW 5 7 29.98 1015 10 16 0.00 0.00
8:54 pm 20:54 Cloudy with Light Rain 62 16.7 55 12.8 78 78 WNW 7 11 29.98 1015 10 16 0.00 0.00
9:54 pm 21:54 Cloudy with Light Rain 61 16.1 56 13.3 84 84 W 10 17 30.00 1016 10 16 0.00 0.00
10:54 pm 22:54 Cloudy 61 16.1 55 12.8 81 81 W 7 11 29.99 1016 10 16 0.00 0.00
11:54 pm 23:54 Cloudy 61 16.1 52 11.1 72 72 WNW 13 20 29.99 1016 10 16 0.00 0.00

Powered by AerisWeather